This demonstration page uses our WeatherBlox Daily Observations layout. Learn more.

Left ArrowRight Arrow

Hourly Observations for May 30, 2018

Temp ( °F °C ) Dew Point ( °F °C ) Humidity (%) Winds ( mph kmh ) Pressure ( in mb ) Visibility ( mi km ) Precip ( " mm )
12:56 am 00:56 Clear 60 15.6 57 13.9 90 90 SE 7 11 29.76 1008 10 16 0.00 0.00
1:56 am 01:56 Clear 59 15 57 13.9 93 93 SSW 3 6 29.77 1008 10 16 0.00 0.00
2:56 am 02:56 Mostly Clear 59 15 57 13.9 93 93 SW 8 13 29.77 1008 10 16 0.00 0.00
3:56 am 03:56 Clear 59 15 57 13.9 93 93 SSW 9 15 29.74 1007 10 16 0.00 0.00
5:56 am 05:56 Clear 59 15 57 13.9 93 93 SSW 9 15 29.72 1007 10 16 0.00 0.00
6:56 am 06:56 Sunny 60 15.6 57 13.9 90 90 WSW 13 20 29.72 1007 10 16 0.00 0.00
7:37 am 07:37 Mostly Sunny 61 16 57 14 88 88 WSW 14 22 29.71 1006 10 16 0.00 0.00
7:56 am 07:56 Sunny 62 16.7 56 13.3 80 80 W 16 26 29.72 1006 10 16 0.00 0.00
8:56 am 08:56 Sunny 66 18.9 57 13.9 73 73 W 13 20 29.72 1007 10 16 0.00 0.00
9:56 am 09:56 Sunny 68 20 58 14.4 70 70 W 13 20 29.72 1007 10 16 0.00 0.00
10:56 am 10:56 Sunny 71 21.7 59 15 66 66 W 10 17 29.72 1006 10 16 0.00 0.00
11:56 am 11:56 Sunny 75 23.9 59 15 58 58 WNW 15 24 29.71 1006 10 16 0.00 0.00
12:56 pm 12:56 Sunny 78 25.6 61 16.1 56 56 W 15 24 29.70 1006 10 16 0.00 0.00
1:07 pm 13:07 Mostly Sunny 79 26 61 16 54 54 W 15 24 29.62 1003 10 16 0.00 0.00
1:56 pm 13:56 Sunny 80 26.7 61 16.1 52 52 WNW 14 22 29.70 1006 10 16 0.00 0.00
2:56 pm 14:56 Sunny 81 27.2 62 16.7 53 53 W 15 24 29.69 1005 10 16 0.00 0.00
3:56 pm 15:56 Mostly Sunny 83 28.3 60 15.6 46 46 WNW 15 24 29.67 1005 10 16 0.00 0.00
4:56 pm 16:56 Sunny 85 29.4 58 14.4 40 40 WNW 10 17 29.65 1004 10 16 0.00 0.00
5:56 pm 17:56 Sunny 85 29.4 54 12.2 35 35 WNW 10 17 29.65 1004 10 16 0.00 0.00
6:56 pm 18:56 Sunny 84 28.9 57 13.9 40 40 W 10 17 29.65 1004 10 16 0.00 0.00
7:56 pm 19:56 Sunny 82 27.8 60 15.6 47 47 W 7 11 29.66 1004 10 16 0.00 0.00
8:56 pm 20:56 Sunny 80 26.7 57 13.9 45 45 WSW 7 11 29.67 1005 10 16 0.00 0.00
9:56 pm 21:56 Clear 77 25 60 15.6 56 56 WSW 6 9 29.69 1005 10 16 0.00 0.03
10:56 pm 22:56 Clear 74 23.3 60 15.6 62 62 WSW 6 9 29.71 1006 10 16 0.00 0.00
11:56 pm 23:56 Clear 73 22.8 59 15 62 62 SW 5 7 29.69 1005 10 16 0.00 0.00

Powered by AerisWeather